Weather History for Lago Vista, TX

Change the Weather History Date:

Tuesday, January 29, 2013

  Actual Average (KATT) Record (KATT)
Temperature  
Mean Temperature 68 °F 52 °F  
Max Temperature 80 °F 63 °F 86 °F (1917)
Min Temperature 53 °F 42 °F 16 °F (1951)
Degree Days  
Heating Degree Days 0 13  
Month to date heating degree days 399  
Since 1 July heating degree days 1011  
Cooling Degree Days 2 0  
Month to date cooling degree days 0  
Year to date cooling degree days 0  
Growing Degree Days 18 (Base 50)    
Moisture  
Dew Point 53 °F    
Average Humidity 63    
Maximum Humidity 88    
Minimum Humidity 23    
Precipitation  
Precipitation 0.00 in 0.07 in 2.18 in (1933)
Month to date precipitation 2.09  
Year to date precipitation 2.09  
Snow  
Snow 0.00 in - - ()
Month to date snowfall  
Since 1 July snowfall  
Snow Depth -    
Sea Level Pressure  
Sea Level Pressure 29.74 in    
Wind  
Wind Speed 13 mph (SSW)    
Max Wind Speed 22 mph    
Max Gust Speed 39 mph    
Visibility 10 miles    
Events Rain , Thunderstorm    
T = Trace of Precipitation, MM = Missing Value Source: NWS Daily Summary

Daily Weather History Graph

Daily Weather History Graph

Search for Another Location

Airport:

Trip Planner

Search our weather history database for the weather conditions in past years. The results will help you decide how hot, cold, wet, or windy it might be!

Date:

Astronomy

Jan. 29, 2013 Rise Set
Actual Time 7:24 AM CST 6:05 PM CST
Civil Twilight 6:59 AM CST 6:31 PM CST
Nautical Twilight 6:30 AM CST 7:00 PM CST
Astronomical Twilight 6:01 AM CST 7:28 PM CST
Moon 8:47 PM CST (1/29) 8:36 AM CST (1/29)
Length of Visible Light 11h 32m
Length of Day
10h 41m
Waning Gibbous, 93% of the Moon is Illuminated
Jan 29
Waning Gibbous
Feb 3
Last Quarter
Feb 10
New
Feb 17
First Quarter
Feb 25
Full

Hourly Weather History & Observations

Time (CST) Temp. Heat Index Dew Point Humidity Pressure Visibility Wind Dir Wind Speed Gust Speed Precip Events Conditions
12:15 AM 69.8 °F - 64.4 °F 83% 29.89 in 10.0 mi South 15.0 mph 25.3 mph N/A   Overcast
12:35 AM 69.8 °F - 64.4 °F 83% 29.89 in 10.0 mi South 10.4 mph 21.9 mph N/A   Overcast
12:55 AM 69.8 °F - 64.4 °F 83% 29.88 in 10.0 mi South 11.5 mph 26.5 mph N/A   Overcast
1:15 AM 69.8 °F - 64.4 °F 83% 29.88 in 7.0 mi South 12.7 mph 18.4 mph N/A Rain Rain
1:35 AM 68.0 °F - 64.4 °F 88% 29.86 in 5.0 mi South 10.4 mph 18.4 mph N/A Rain Rain
1:55 AM 68.0 °F - 64.4 °F 88% 29.85 in 7.0 mi South 8.1 mph 19.6 mph N/A   Drizzle
2:15 AM 68.0 °F - 64.4 °F 88% 29.84 in 10.0 mi South 12.7 mph 18.4 mph N/A   Light Drizzle
2:35 AM 69.8 °F - 64.4 °F 83% 29.86 in 10.0 mi South 12.7 mph 23.0 mph N/A   Overcast
2:55 AM 69.8 °F - 64.4 °F 83% 29.84 in 10.0 mi South 16.1 mph 24.2 mph N/A   Overcast
3:15 AM 68.0 °F - 64.4 °F 88% 29.84 in 10.0 mi South 13.8 mph 23.0 mph N/A   Overcast
3:35 AM 68.0 °F - 64.4 °F 88% 29.83 in 10.0 mi South 13.8 mph 21.9 mph N/A   Overcast
3:55 AM 69.8 °F - 64.4 °F 83% 29.83 in 10.0 mi South 18.4 mph 25.3 mph N/A   Overcast
4:15 AM 68.0 °F - 64.4 °F 88% 29.83 in 10.0 mi South 16.1 mph 26.5 mph N/A   Light Drizzle
4:35 AM 68.0 °F - 64.4 °F 88% 29.83 in 7.0 mi South 16.1 mph 21.9 mph N/A   Drizzle
4:55 AM 68.0 °F - 64.4 °F 88% 29.83 in 7.0 mi South 13.8 mph 18.4 mph N/A   Drizzle
5:15 AM 68.0 °F - 64.4 °F 88% 29.82 in 10.0 mi South 12.7 mph 17.3 mph N/A   Overcast
5:35 AM 68.0 °F - 64.4 °F 88% 29.81 in 10.0 mi South 13.8 mph 20.7 mph N/A   Overcast
5:55 AM 68.0 °F - 64.4 °F 88% 29.81 in 10.0 mi South 12.7 mph 21.9 mph N/A   Overcast
6:15 AM 68.0 °F - 64.4 °F 88% 29.81 in 10.0 mi SSE 10.4 mph 17.3 mph N/A   Overcast
6:55 AM 68.0 °F - 64.4 °F 88% 29.79 in 10.0 mi SSE 9.2 mph 16.1 mph N/A   Overcast
7:15 AM 68.0 °F - 64.4 °F 88% 29.78 in 10.0 mi SSE 9.2 mph 18.4 mph N/A   Overcast
7:35 AM 68.0 °F - 64.4 °F 88% 29.77 in 10.0 mi SSE 11.5 mph 19.6 mph N/A   Overcast
7:55 AM 68.0 °F - 62.6 °F 83% 29.76 in 10.0 mi SSE 9.2 mph 18.4 mph N/A   Overcast
8:15 AM 68.0 °F - 62.6 °F 83% 29.76 in 10.0 mi SSE 10.4 mph 19.6 mph N/A   Overcast
8:35 AM 68.0 °F - 62.6 °F 83% 29.76 in 10.0 mi SSE 10.4 mph 18.4 mph N/A   Overcast
8:55 AM 68.0 °F - 62.6 °F 83% 29.75 in 10.0 mi SSE 11.5 mph 20.7 mph N/A   Overcast
9:15 AM 68.0 °F - 62.6 °F 83% 29.74 in 10.0 mi SSE 9.2 mph 17.3 mph N/A   Overcast
9:35 AM 69.8 °F - 62.6 °F 78% 29.74 in 10.0 mi SSE 9.2 mph 16.1 mph N/A   Overcast
9:55 AM 69.8 °F - 62.6 °F 78% 29.75 in 10.0 mi South 10.4 mph 21.9 mph N/A   Overcast
10:15 AM 69.8 °F - 62.6 °F 78% 29.75 in 10.0 mi South 9.2 mph 16.1 mph N/A   Overcast
10:35 AM 69.8 °F - 64.4 °F 83% 29.73 in 10.0 mi SSE 8.1 mph - N/A   Light Drizzle
10:55 AM 71.6 °F - 62.6 °F 73% 29.74 in 10.0 mi SSE 8.1 mph 17.3 mph N/A   Overcast
11:15 AM 71.6 °F - 62.6 °F 73% 29.72 in 10.0 mi South 11.5 mph 21.9 mph N/A   Overcast
11:55 AM 73.4 °F - 62.6 °F 69% 29.69 in 10.0 mi South 16.1 mph 25.3 mph N/A   Overcast
12:15 PM 73.4 °F - 62.6 °F 69% 29.67 in 10.0 mi South 17.3 mph 28.8 mph N/A   Overcast
12:35 PM 73.4 °F - 62.6 °F 69% 29.66 in 10.0 mi South 11.5 mph 24.2 mph N/A   Overcast
12:55 PM 77.0 °F - 62.6 °F 61% 29.63 in 10.0 mi South 13.8 mph 24.2 mph N/A   Overcast
1:15 PM 77.0 °F - 60.8 °F 57% 29.62 in 10.0 mi South 15.0 mph 25.3 mph N/A   Mostly Cloudy
1:35 PM 77.0 °F - 60.8 °F 57% 29.60 in 10.0 mi South 12.7 mph 24.2 mph N/A   Scattered Clouds
1:55 PM 77.0 °F - 60.8 °F 57% 29.58 in 10.0 mi South 15.0 mph 24.2 mph N/A   Scattered Clouds
2:15 PM 78.8 °F - 59.0 °F 51% 29.58 in 10.0 mi SSW 10.4 mph 23.0 mph N/A   Scattered Clouds
2:35 PM 78.8 °F - 59.0 °F 51% 29.57 in 10.0 mi SSW 15.0 mph 25.3 mph N/A   Clear
3:15 PM 78.8 °F - 57.2 °F 47% 29.55 in 10.0 mi South 11.5 mph 24.2 mph N/A   Clear
3:35 PM 78.8 °F - 55.4 °F 44% 29.55 in 10.0 mi SSW 11.5 mph 23.0 mph N/A   Clear
3:55 PM 78.8 °F - 55.4 °F 44% 29.54 in 10.0 mi SSW 15.0 mph 23.0 mph N/A   Clear
4:15 PM 80.6 °F 80.5 °F 55.4 °F 42% 29.54 in 10.0 mi SSW 12.7 mph 21.9 mph N/A   Clear
4:35 PM 73.4 °F - 46.4 °F 38% 29.58 in 10.0 mi NW 19.6 mph 31.1 mph N/A Thunderstorm Mostly Cloudy
4:55 PM 69.8 °F - 42.8 °F 38% 29.59 in 10.0 mi WNW 18.4 mph 33.4 mph N/A   Scattered Clouds
5:15 PM 68.0 °F - 42.8 °F 40% 29.63 in 10.0 mi West 20.7 mph 31.1 mph N/A   Scattered Clouds
5:35 PM 64.4 °F - 42.8 °F 45% 29.63 in 10.0 mi WNW 21.9 mph 39.1 mph N/A   Scattered Clouds
5:55 PM 62.6 °F - 41.0 °F 45% 29.66 in 10.0 mi WNW 19.6 mph 31.1 mph N/A   Scattered Clouds
6:15 PM 60.8 °F - 41.0 °F 48% 29.66 in 10.0 mi NW 13.8 mph 21.9 mph N/A   Scattered Clouds
6:35 PM 60.8 °F - 39.2 °F 45% 29.65 in 10.0 mi WNW 13.8 mph 20.7 mph N/A   Clear
6:55 PM 60.8 °F - 37.4 °F 42% 29.67 in 10.0 mi WNW 13.8 mph 20.7 mph N/A   Scattered Clouds
7:15 PM 60.8 °F - 35.6 °F 39% 29.68 in 10.0 mi WNW 15.0 mph 23.0 mph N/A   Scattered Clouds
7:55 PM 60.8 °F - 32.0 °F 34% 29.70 in 10.0 mi WNW 13.8 mph 23.0 mph N/A   Clear
8:15 PM 60.8 °F - 32.0 °F 34% 29.71 in 10.0 mi WNW 13.8 mph 23.0 mph N/A   Clear
8:35 PM 60.8 °F - 30.2 °F 31% 29.72 in 10.0 mi WNW 15.0 mph 21.9 mph N/A   Clear
8:55 PM 59.0 °F - 28.4 °F 31% 29.74 in 10.0 mi WNW 10.4 mph 16.1 mph N/A   Clear
9:15 PM 59.0 °F - 28.4 °F 31% 29.75 in 10.0 mi WNW 10.4 mph 19.6 mph N/A   Clear
9:35 PM 59.0 °F - 26.6 °F 29% 29.76 in 10.0 mi WNW 10.4 mph 20.7 mph N/A   Clear
9:55 PM 59.0 °F - 26.6 °F 29% 29.77 in 10.0 mi WNW 11.5 mph 21.9 mph N/A   Clear
10:15 PM 57.2 °F - 24.8 °F 29% 29.79 in 10.0 mi WNW 10.4 mph 18.4 mph N/A   Clear
10:35 PM 55.4 °F - 23.0 °F 29% 29.79 in 10.0 mi WNW 10.4 mph 18.4 mph N/A   Clear
10:55 PM 55.4 °F - 23.0 °F 29% 29.81 in 10.0 mi NW 6.9 mph - N/A   Clear
11:15 PM 55.4 °F - 19.4 °F 25% 29.81 in 10.0 mi WNW 17.3 mph 26.5 mph N/A   Clear
11:35 PM 55.4 °F - 17.6 °F 23% 29.82 in 10.0 mi WNW 13.8 mph 24.2 mph N/A   Clear
11:55 PM 53.6 °F - 17.6 °F 24% 29.81 in 10.0 mi WNW 12.7 mph 23.0 mph N/A   Clear